Glenwood, MN

7:44 AM CST on November 23, 2017 (GMT -0600)
Glenwood Municipal

Weather History for KGHW - November, 2012

Change the Weather History Date:

Monday, November 12, 2012

  Actual Average Record
Temperature  
Mean Temperature 18 °F -  
Max Temperature 21 °F 38 °F 62 °F (2011)
Min Temperature 12 °F 21 °F -4 °F (1966)
Degree Days  
Heating Degree Days 48    
Moisture  
Dew Point 14 °F    
Average Humidity 85    
Maximum Humidity 100    
Minimum Humidity 73    
Precipitation  
Precipitation 0.00 in - - ()
Sea Level Pressure  
Sea Level Pressure 30.04 in    
Wind  
Wind Speed 15 mph (West)    
Max Wind Speed 22 mph    
Max Gust Speed 30 mph    
Visibility 8 miles    
Events Snow    
Averages and records for this station are not official NWS values.
T = Trace of Precipitation, MM = Missing Value Source: NWS Daily Summary

Daily Weather History Graph

Daily Weather History Graph

Search for Another Location

Airport or City:

Trip Planner

Search our weather history database for the weather conditions in past years. The results will help you decide how hot, cold, wet, or windy it might be!

Date:

Astronomy

Nov. 12, 2012 Rise Set
Actual Time 7:17 AM CST 4:53 PM CST
Civil Twilight 6:45 AM CST 5:25 PM CST
Nautical Twilight 6:09 AM CST 6:00 PM CST
Astronomical Twilight 5:34 AM CST 6:35 PM CST
Moon 5:41 AM CST (11/12) 4:00 PM CST (11/12)
Length of Visible Light 10h 39m
Length of Day
9h 35m
Waning Crescent, 2% of the Moon is Illuminated
Nov 12
Waning Crescent
Nov 13
New
Nov 20
First Quarter
Nov 28
Full
Dec 6
Last Quarter

Hourly Weather History & Observations

Time (CST) Temp. Windchill Dew Point Humidity Pressure Visibility Wind Dir Wind Speed Gust Speed Precip Events Conditions
12:13 AM 17.6 °F 3.2 °F 14.0 °F 86% 29.87 in 10.0 mi WSW 15.0 mph 20.7 mph N/A Snow Light Snow
12:33 AM 17.6 °F 3.2 °F 14.0 °F 86% 29.87 in 10.0 mi WSW 15.0 mph - N/A   Overcast
12:54 AM 17.6 °F 2.2 °F 14.0 °F 86% 29.87 in 10.0 mi WSW 17.3 mph - N/A   Overcast
1:13 AM 17.6 °F 2.7 °F 14.0 °F 86% 29.87 in 7.0 mi WSW 16.1 mph 20.7 mph N/A Snow Light Snow
1:33 AM 17.6 °F 5.0 °F 15.8 °F 93% 29.87 in 10.0 mi WSW 11.5 mph 20.7 mph N/A Snow Light Snow
1:54 AM 17.6 °F 3.2 °F 14.0 °F 86% 29.87 in 10.0 mi West 15.0 mph - N/A   Overcast
2:13 AM 17.6 °F 3.7 °F 14.0 °F 86% 29.87 in 10.0 mi West 13.8 mph - N/A   Overcast
2:33 AM 17.6 °F 4.3 °F 15.8 °F 93% 29.87 in 7.0 mi West 12.7 mph 19.6 mph N/A   Overcast
2:54 AM 17.6 °F 3.2 °F 15.8 °F 93% 29.87 in 2.5 mi West 15.0 mph 18.4 mph N/A Snow Light Snow
3:33 AM 17.6 °F 7.3 °F 17.6 °F 100% 29.86 in 2.0 mi West 8.1 mph - N/A Snow Light Snow
3:53 AM 17.6 °F 5.0 °F 15.8 °F 93% 29.87 in 1.2 mi West 11.5 mph - N/A Snow Snow
4:13 AM 17.6 °F 3.2 °F 14.0 °F 86% 29.87 in 5.0 mi West 15.0 mph - N/A Snow Light Snow
4:33 AM 17.6 °F 2.7 °F 14.0 °F 86% 29.88 in 10.0 mi West 16.1 mph 23.0 mph N/A   Overcast
4:53 AM 17.6 °F 2.7 °F 14.0 °F 86% 29.88 in 7.0 mi West 16.1 mph 21.9 mph N/A Snow Light Snow
5:13 AM 15.8 °F 0.3 °F 12.2 °F 86% 29.89 in 10.0 mi West 16.1 mph 23.0 mph N/A   Scattered Clouds
5:34 AM 15.8 °F -0.2 °F 12.2 °F 86% 29.90 in 10.0 mi West 17.3 mph 24.2 mph N/A   Scattered Clouds
5:53 AM 15.8 °F 0.9 °F 14.0 °F 93% 29.90 in 5.0 mi West 15.0 mph - N/A Snow Light Snow
6:13 AM 15.8 °F 1.4 °F 12.2 °F 86% 29.90 in 10.0 mi West 13.8 mph 20.7 mph N/A Snow Light Snow
6:34 AM 17.6 °F 3.2 °F 14.0 °F 86% 29.91 in 5.0 mi West 15.0 mph 20.7 mph N/A Snow Light Snow
6:53 AM 15.8 °F 0.3 °F 12.2 °F 86% 29.91 in 10.0 mi West 16.1 mph 21.9 mph N/A Snow Light Snow
7:13 AM 15.8 °F 0.3 °F 12.2 °F 86% 29.93 in 7.0 mi West 16.1 mph 25.3 mph N/A Snow Light Snow
7:34 AM 15.8 °F 0.3 °F 14.0 °F 93% 29.93 in 3.0 mi West 16.1 mph 20.7 mph N/A Snow Light Snow
7:53 AM 15.8 °F -0.6 °F 12.2 °F 86% 29.94 in 3.0 mi West 18.4 mph 26.5 mph N/A Snow Light Snow
8:13 AM 15.8 °F -0.2 °F 12.2 °F 86% 29.95 in 5.0 mi West 17.3 mph 26.5 mph N/A Snow Light Snow
8:53 AM 15.8 °F -0.2 °F 10.4 °F 79% 29.97 in 4.0 mi West 17.3 mph 24.2 mph N/A Snow Light Snow
9:13 AM 15.8 °F -1.1 °F 10.4 °F 79% 29.97 in 4.0 mi West 19.6 mph 24.2 mph N/A Snow Light Snow
9:34 AM 15.8 °F -1.1 °F 10.4 °F 79% 29.98 in 3.0 mi West 19.6 mph 27.6 mph N/A Snow Light Snow
9:53 AM 15.8 °F 0.3 °F 10.4 °F 79% 29.99 in 5.0 mi West 16.1 mph 23.0 mph N/A Snow Light Snow
10:13 AM 15.8 °F -1.5 °F 10.4 °F 79% 29.99 in 7.0 mi West 20.7 mph 25.3 mph N/A Snow Light Snow
10:34 AM 17.6 °F 0.9 °F 10.4 °F 73% 30.00 in 10.0 mi WNW 20.7 mph 25.3 mph N/A   Overcast
10:53 AM 17.6 °F 2.2 °F 12.2 °F 79% 30.02 in 5.0 mi West 17.3 mph 26.5 mph N/A Snow Light Snow
11:13 AM 17.6 °F 1.3 °F 12.2 °F 79% 30.03 in 4.0 mi West 19.6 mph 29.9 mph N/A Snow Light Snow
11:34 AM 17.6 °F 0.5 °F 10.4 °F 73% 30.03 in 7.0 mi West 21.9 mph 28.8 mph N/A Snow Light Snow
11:53 AM 19.4 °F 3.2 °F 12.2 °F 74% 30.03 in 7.0 mi West 20.7 mph 26.5 mph N/A Snow Light Snow
12:13 PM 17.6 °F 1.7 °F 12.2 °F 79% 30.03 in 7.0 mi West 18.4 mph 27.6 mph N/A Snow Light Snow
12:33 PM 19.4 °F 5.5 °F 12.2 °F 74% 30.04 in 10.0 mi West 15.0 mph 21.9 mph N/A   Unknown
12:53 PM 19.4 °F 3.6 °F 12.2 °F 74% 30.04 in 10.0 mi West 19.6 mph 27.6 mph N/A Snow Light Snow
1:13 PM 19.4 °F 3.2 °F 14.0 °F 80% 30.05 in 7.0 mi West 20.7 mph - N/A Snow Light Snow
1:33 PM 21.2 °F 5.6 °F 15.8 °F 80% 30.06 in 10.0 mi West 20.7 mph 25.3 mph N/A   Overcast
1:53 PM 21.2 °F 5.6 °F 15.8 °F 80% 30.06 in 10.0 mi West 20.7 mph 27.6 mph N/A   Overcast
2:13 PM 19.4 °F 4.5 °F 15.8 °F 86% 30.06 in 10.0 mi West 17.3 mph - N/A   Overcast
2:33 PM 19.4 °F 3.2 °F 15.8 °F 86% 30.07 in 10.0 mi West 20.7 mph 25.3 mph N/A   Overcast
2:53 PM 21.2 °F 6.8 °F 15.8 °F 80% 30.08 in 10.0 mi West 17.3 mph 25.3 mph N/A   Overcast
3:14 PM 21.2 °F 6.8 °F 15.8 °F 80% 30.10 in 10.0 mi West 17.3 mph - N/A   Overcast
3:33 PM 21.2 °F 6.8 °F 15.8 °F 80% 30.10 in 10.0 mi West 17.3 mph 21.9 mph N/A   Overcast
3:53 PM 21.2 °F 6.8 °F 15.8 °F 80% 30.11 in 10.0 mi West 17.3 mph 24.2 mph N/A   Overcast
4:14 PM 21.2 °F 7.8 °F 15.8 °F 80% 30.12 in 10.0 mi West 15.0 mph - N/A   Overcast
4:33 PM 21.2 °F 7.8 °F 15.8 °F 80% 30.13 in 10.0 mi West 15.0 mph 23.0 mph N/A   Overcast
4:53 PM 21.2 °F 6.4 °F 15.8 °F 80% 30.13 in 10.0 mi West 18.4 mph 23.0 mph N/A   Overcast
5:14 PM 19.4 °F 5.0 °F 15.8 °F 86% 30.14 in 10.0 mi West 16.1 mph 20.7 mph N/A   Overcast
5:33 PM 19.4 °F 6.6 °F 15.8 °F 86% 30.15 in 10.0 mi West 12.7 mph - N/A   Mostly Cloudy
5:53 PM 19.4 °F 7.9 °F 15.8 °F 86% 30.16 in 10.0 mi West 10.4 mph - N/A   Mostly Cloudy
6:14 PM 19.4 °F 7.2 °F 15.8 °F 86% 30.17 in 10.0 mi West 11.5 mph 18.4 mph N/A   Scattered Clouds
6:33 PM 19.4 °F 6.6 °F 15.8 °F 86% 30.17 in 10.0 mi West 12.7 mph 18.4 mph N/A   Clear
6:53 PM 19.4 °F 7.2 °F 15.8 °F 86% 30.18 in 10.0 mi West 11.5 mph - N/A   Clear
7:14 PM 17.6 °F 6.4 °F 15.8 °F 93% 30.19 in 10.0 mi West 9.2 mph 16.1 mph N/A   Clear
7:33 PM 17.6 °F 6.4 °F 15.8 °F 93% 30.19 in 10.0 mi WNW 9.2 mph - N/A   Clear
7:53 PM 17.6 °F 7.3 °F 15.8 °F 93% 30.20 in 10.0 mi West 8.1 mph - N/A   Clear
8:14 PM 17.6 °F 8.2 °F 14.0 °F 86% 30.20 in 10.0 mi West 6.9 mph - N/A   Clear
8:33 PM 17.6 °F 6.4 °F 14.0 °F 86% 30.20 in 10.0 mi West 9.2 mph - N/A   Clear
8:53 PM 17.6 °F 7.3 °F 14.0 °F 86% 30.20 in 10.0 mi West 8.1 mph - N/A   Clear
9:13 PM 17.6 °F 8.2 °F 14.0 °F 86% 30.20 in 10.0 mi West 6.9 mph - N/A   Clear
9:33 PM 15.8 °F 7.2 °F 12.2 °F 86% 30.21 in 10.0 mi WSW 5.8 mph - N/A   Clear
9:53 PM 15.8 °F 5.1 °F 12.2 °F 86% 30.21 in 10.0 mi WSW 8.1 mph - N/A   Clear
10:13 PM 15.8 °F 5.1 °F 12.2 °F 86% 30.22 in 10.0 mi WSW 8.1 mph - N/A   Clear
10:33 PM 15.8 °F 5.1 °F 14.0 °F 93% 30.23 in 10.0 mi West 8.1 mph - N/A   Clear
10:53 PM 14.0 °F 3.9 °F 12.2 °F 93% 30.23 in 10.0 mi WSW 6.9 mph - N/A   Clear
11:13 PM 14.0 °F 3.9 °F 12.2 °F 93% 30.23 in 10.0 mi SW 6.9 mph - N/A   Clear
11:33 PM 14.0 °F - 10.4 °F 86% 30.24 in 10.0 mi Calm Calm - N/A   Clear
11:54 PM 12.2 °F 2.9 °F 10.4 °F 92% 30.24 in 10.0 mi SSW 5.8 mph - N/A   Clear